Location: Writing-on-Stone Provincial Park
(49.0825°N, 111.6163°W)
Time: 15:24:19
(UTC-06:00)

Amateur Radio Satellites - All Passes

Search period start: 31 October 2014 14:54
Search period end: 01 November 2014 14:54
Location: Writing-on-Stone Provincial Park, 49.0825°N, 111.6163°W

Satellite Date Start Highest point End Downlink Frequencies (MHz)
Time Altitude Azimuth
Gurwin Techsat 1B 31 Oct 14:56:10 15:01:26 68° 71° (ENE) 15:06:44 435.225 FM
TMSAT-1 31 Oct 15:02:34 15:07:45 59° 70° (ENE) 15:12:59 436.925 FM
ISS 31 Oct 15:02:35 15:05:55 61° 11° (N) 15:09:14 145.800 FM
SO-50 31 Oct 15:15:35 15:18:18 15° 344° (NNW) 15:21:04 436.795 FM
Uribyol 2 31 Oct 15:24:34 15:29:28 40° 263° (W) 15:34:23 436.500 FM
AO-Echo 31 Oct 15:26:05 15:30:36 33° 265° (W) 15:35:15 ?
ITAMSAT 1 31 Oct 15:32:42 15:37:30 36° 264° (W) 15:42:20 435.822 SSB
Uosat F 31 Oct 15:39:35 15:43:30 23° 59° (ENE) 15:47:26 435.120 FM
Oscar 19 31 Oct 15:46:52 15:49:14 13° 274° (W) 15:51:35 437.125 CW, 437.150 USB
AO-7 31 Oct 15:54:10 16:02:13 60° 62° (ENE) 16:10:20 29.400 - 29.500 MHz
UOSAT-12 31 Oct 15:56:34 16:00:26 24° 329° (NNW) 16:04:20 437.025 FM, 437.400 FM
AO-27 31 Oct 16:22:55 16:25:47 15° 273° (W) 16:28:39 436.795 MHz FM
Saudisat 1A 31 Oct 16:26:41 16:29:07 15° 249° (WSW) 16:31:32 436.775 MHz
KITSAT 1 31 Oct 16:27:05 16:33:19 23° 1° (N) 16:39:34 435.175 FM
Gurwin Techsat 1B 31 Oct 16:38:05 16:41:55 20° 270° (W) 16:45:46 435.225 FM
ISS 31 Oct 16:39:22 16:42:35 45° 210° (SSW) 16:45:48 145.800 FM
JAS-2 31 Oct 16:41:58 16:47:42 32° 57° (ENE) 16:54:00 435.800 - 435.900 CW/SSB, 435.910 FM
TMSAT-1 31 Oct 16:43:55 16:48:04 23° 269° (W) 16:52:15 436.925 FM
Hamsat 31 Oct 16:47:14 16:48:57 12° 57° (ENE) 16:50:40 145.90 MHz
SO-50 31 Oct 16:58:34 17:00:50 13° 9° (N) 17:03:06 436.795 FM
Uosat F 31 Oct 17:16:57 17:21:55 59° 258° (WSW) 17:26:56 435.120 FM
UOSAT-12 31 Oct 17:40:06 17:42:13 13° 353° (N) 17:44:21 437.025 FM, 437.400 FM
OPAL 31 Oct 17:43:47 17:46:42 16° 91° (E) 17:49:36 ?
AO-7 31 Oct 17:47:50 17:55:23 38° 263° (W) 18:03:01 29.400 - 29.500 MHz
Hamsat 31 Oct 18:20:05 18:24:16 88° 257° (WSW) 18:28:29 145.90 MHz
KITSAT 1 31 Oct 18:24:04 18:31:23 36° 30° (NNE) 18:38:40 435.175 FM
JAS-2 31 Oct 18:25:52 18:32:14 63° 260° (W) 18:39:30 435.800 - 435.900 CW/SSB, 435.910 FM
SO-50 31 Oct 18:38:54 18:42:59 27° 33° (NNE) 18:47:06 436.795 FM
Oscar 10/S400 31 Oct 18:45:35 19:08:23 46° 181° (S) 00:56:23 145.825 - 145.975 CW/USB, Beacon 145.810 USB
SO-67 31 Oct 19:00:36 19:03:41 31° 70° (ENE) 19:06:47 435.3500 MHz FM
OPAL 31 Oct 19:21:13 19:26:12 79° 290° (WNW) 19:31:08 ?
UOSAT-12 31 Oct 19:21:25 19:24:19 16° 18° (NNE) 19:27:11 437.025 FM, 437.400 FM
STRAND 1 31 Oct 19:39:23 19:43:53 29° 94° (E) 19:48:20 ?
RS-15 31 Oct 19:54:51 20:00:42 16° 96° (E) 20:06:31 29.354 - 29.394 USB, Beacon 29.352 USB
HO-68 31 Oct 19:56:45 20:02:50 31° 55° (NE) 20:08:57 435.675 MHz FM
JAS-2 31 Oct 20:16:23 20:19:00 12° 283° (WNW) 20:21:43 435.800 - 435.900 CW/SSB, 435.910 FM
SO-50 31 Oct 20:19:11 20:24:02 75° 233° (SW) 20:28:54 436.795 FM
KITSAT 1 31 Oct 20:19:38 20:27:46 88° 235° (SW) 20:35:51 435.175 FM
UKube-1 31 Oct 20:31:03 20:32:38 12° 55° (NE) 20:34:12 145.840 MHz, 145.915 MHz
SO-67 31 Oct 20:34:11 20:36:44 19° 267° (W) 20:39:18 435.3500 MHz FM
UOSAT-12 31 Oct 21:01:09 21:05:40 42° 41° (NE) 21:10:08 437.025 FM, 437.400 FM
OPAL 31 Oct 21:01:41 21:04:19 15° 309° (NW) 21:06:57 ?
Oscar 11 31 Oct 21:03:49 21:06:58 20° 62° (ENE) 21:10:07 145.825 FM, Beacon 2401.500 USB
STRAND 1 31 Oct 21:18:21 21:23:14 44° 293° (WNW) 21:28:05 ?
FUNcube-1 31 Oct 21:22:13 21:24:48 15° 59° (ENE) 21:27:22 145.950 - 145.970 MHz USB
HO-68 31 Oct 21:42:56 21:50:04 69° 256° (WSW) 21:57:17 435.675 MHz FM
RS-15 31 Oct 21:59:54 22:10:39 65° 119° (ESE) 22:21:23 29.354 - 29.394 USB, Beacon 29.352 USB
SO-50 31 Oct 22:01:48 22:03:49 13° 252° (WSW) 22:05:50 436.795 FM
UKube-1 31 Oct 22:03:43 22:08:04 79° 74° (ENE) 22:12:28 145.840 MHz, 145.915 MHz
ZACube-1 31 Oct 22:13:40 22:17:55 42° 69° (ENE) 22:22:06 437.345 MHz
KITSAT 1 31 Oct 22:16:11 22:22:07 23° 256° (WSW) 22:28:04 435.175 FM
Oscar 11 31 Oct 22:38:36 22:42:49 52° 260° (W) 22:47:03 145.825 FM, Beacon 2401.500 USB
UOSAT-12 31 Oct 22:41:28 22:45:48 36° 241° (WSW) 22:50:03 437.025 FM, 437.400 FM
FUNcube-1 31 Oct 22:56:09 23:00:40 78° 257° (WSW) 23:05:06 145.950 - 145.970 MHz USB
MaSat-1 31 Oct 22:58:06 23:01:50 60° 118° (ESE) 23:05:10 437.345 MHz
HO-68 31 Oct 23:35:37 23:39:08 14° 276° (W) 23:42:41 435.675 MHz FM
UKube-1 31 Oct 23:42:52 23:44:50 13° 272° (W) 23:46:49 145.840 MHz, 145.915 MHz
ZACube-1 31 Oct 23:50:48 23:54:28 24° 267° (W) 23:58:06 437.345 MHz
RS-15 01 Nov 00:12:49 00:23:26 53° 326° (NW) 00:34:13 29.354 - 29.394 USB, Beacon 29.352 USB
MaSat-1 01 Nov 00:35:11 00:37:27 16° 314° (NW) 00:39:34 437.345 MHz
Sapphire 01 Nov 01:39:09 01:40:33 11° 101° (E) 01:41:58 437.095 MHz 1200 baud AX-25 AFSK
PCSat 01 Nov 01:58:13 02:01:48 18° 106° (ESE) 02:05:24 145.825 MHz
JAS-1B 01 Nov 02:05:22 02:11:30 30° 94° (E) 02:18:32 435.800 - 435.900 CW/SSB
Oscar 19 01 Nov 02:11:55 02:16:06 25° 93° (E) 02:20:16 437.125 CW, 437.150 USB
RS-15 01 Nov 02:28:59 02:38:48 35° 359° (N) 02:48:50 29.354 - 29.394 USB, Beacon 29.352 USB
AO-27 01 Nov 02:49:51 02:54:01 23° 92° (E) 02:58:08 436.795 MHz FM
Oscar 16 01 Nov 02:58:34 03:03:40 61° 102° (ESE) 03:08:44 437.025 USB, Beacon 2401.1428
Gurwin Techsat 1B 01 Nov 03:09:04 03:12:54 20° 90° (E) 03:16:43 435.225 FM
TMSAT-1 01 Nov 03:15:19 03:18:43 17° 88° (E) 03:22:06 436.925 FM
Sapphire 01 Nov 03:17:35 03:22:56 67° 120° (ESE) 03:28:20 437.095 MHz 1200 baud AX-25 AFSK
AO-Echo 01 Nov 03:28:17 03:33:36 64° 101° (ESE) 03:38:50 ?
Uribyol 2 01 Nov 03:32:42 03:37:50 54° 101° (E) 03:42:53 436.500 FM
PCSat 01 Nov 03:39:07 03:44:33 83° 306° (NW) 03:50:01 145.825 MHz
ITAMSAT 1 01 Nov 03:40:48 03:46:00 60° 102° (ESE) 03:51:08 435.822 SSB
Oscar 19 01 Nov 03:50:46 03:55:44 52° 291° (WNW) 04:00:41 437.125 CW, 437.150 USB
AO-7 01 Nov 03:53:40 03:57:03 13° 82° (E) 04:00:26 29.400 - 29.500 MHz
JAS-1B 01 Nov 03:55:38 04:02:28 68° 290° (WNW) 04:10:39 435.800 - 435.900 CW/SSB
AO-27 01 Nov 04:28:45 04:33:53 57° 291° (WNW) 04:38:58 436.795 MHz FM
Oscar 16 01 Nov 04:38:41 04:42:38 23° 301° (WNW) 04:46:34 437.025 USB, Beacon 2401.1428
RS-15 01 Nov 04:43:34 04:54:17 51° 32° (NNE) 05:05:20 29.354 - 29.394 USB, Beacon 29.352 USB
Gurwin Techsat 1B 01 Nov 04:48:05 04:53:23 68° 289° (WNW) 04:58:39 435.225 FM
TMSAT-1 01 Nov 04:53:56 04:59:16 78° 287° (WNW) 05:04:34 436.925 FM
OPAL 01 Nov 05:01:46 05:06:36 46° 65° (ENE) 05:11:24 ?
Sapphire 01 Nov 05:02:05 05:06:49 30° 322° (NW) 05:11:34 437.095 MHz 1200 baud AX-25 AFSK
AO-Echo 01 Nov 05:07:46 05:11:56 24° 301° (WNW) 05:16:03 ?
Uribyol 2 01 Nov 05:12:45 05:17:00 26° 300° (WNW) 05:21:13 436.500 FM
Uosat F 01 Nov 05:20:41 05:25:11 31° 95° (E) 05:29:39 435.120 FM
ITAMSAT 1 01 Nov 05:21:00 05:25:07 24° 301° (WNW) 05:29:13 435.822 SSB
STRAND 1 01 Nov 05:24:02 05:25:59 12° 51° (NE) 05:27:55 ?
PCSat 01 Nov 05:24:32 05:28:47 23° 328° (NNW) 05:33:04 145.825 MHz
JAS-2 01 Nov 05:31:12 05:37:06 23° 85° (E) 05:42:51 435.800 - 435.900 CW/SSB, 435.910 FM
AO-7 01 Nov 05:43:26 05:51:40 60° 104° (ESE) 05:59:53 29.400 - 29.500 MHz
JAS-1B 01 Nov 05:47:59 05:52:09 17° 310° (NW) 05:56:43 435.800 - 435.900 CW/SSB
Hamsat 01 Nov 06:03:14 06:05:05 13° 88° (E) 06:06:57 145.90 MHz
AO-27 01 Nov 06:10:54 06:12:20 11° 311° (NW) 06:13:45 436.795 MHz FM
Gurwin Techsat 1B 01 Nov 06:29:59 06:32:25 13° 308° (NW) 06:34:51 435.225 FM
Saudisat 1A 01 Nov 06:34:49 06:39:04 53° 123° (ESE) 06:43:23 436.775 MHz
TMSAT-1 01 Nov 06:35:27 06:38:22 15° 307° (NW) 06:41:17 436.925 FM
OPAL 01 Nov 06:41:19 06:45:40 28° 263° (W) 06:50:00 ?
Sapphire 01 Nov 06:49:37 06:52:05 13° 347° (NNW) 06:54:33 437.095 MHz 1200 baud AX-25 AFSK
RS-15 01 Nov 06:56:19 07:07:21 71° 239° (WSW) 07:18:50 29.354 - 29.394 USB, Beacon 29.352 USB
STRAND 1 01 Nov 06:59:07 07:04:12 64° 71° (ENE) 07:09:19 ?
Uosat F 01 Nov 06:59:21 07:04:04 40° 294° (WNW) 07:08:45 435.120 FM
MaSat-1 01 Nov 07:03:42 07:05:51 22° 50° (NE) 07:07:52 437.345 MHz
PCSat 01 Nov 07:12:22 07:14:19 12° 353° (N) 07:16:17 145.825 MHz
JAS-2 01 Nov 07:15:10 07:23:05 88° 105° (ESE) 07:30:49 435.800 - 435.900 CW/SSB, 435.910 FM
AO-7 01 Nov 07:36:38 07:44:12 41° 305° (NW) 07:51:46 29.400 - 29.500 MHz
Hamsat 01 Nov 07:37:20 07:41:34 75° 285° (WNW) 07:45:48 145.90 MHz
SO-67 01 Nov 07:52:40 07:55:24 21° 94° (E) 07:58:07 435.3500 MHz FM
Saudisat 1A 01 Nov 08:15:01 08:18:53 29° 324° (NW) 08:22:48 436.775 MHz
Sapphire 01 Nov 08:35:31 08:38:01 13° 14° (NNE) 08:40:31 437.095 MHz 1200 baud AX-25 AFSK
MaSat-1 01 Nov 08:39:32 08:41:00 14° 251° (WSW) 08:42:25 437.345 MHz
STRAND 1 01 Nov 08:40:04 08:43:51 20° 269° (W) 08:47:39 ?
PCSat 01 Nov 08:57:04 09:00:12 15° 20° (NNE) 09:03:18 145.825 MHz
JAS-2 01 Nov 09:01:00 09:07:14 27° 306° (NW) 09:13:26 435.800 - 435.900 CW/SSB, 435.910 FM
HO-68 01 Nov 09:07:13 09:12:09 19° 88° (E) 09:17:04 435.675 MHz FM
RS-15 01 Nov 09:10:33 09:17:39 20° 262° (W) 09:24:57 29.354 - 29.394 USB, Beacon 29.352 USB
Hamsat 01 Nov 09:15:59 09:16:46 10° 304° (NW) 09:17:33 145.90 MHz
SO-67 01 Nov 09:25:23 09:28:24 28° 291° (WNW) 09:31:24 435.3500 MHz FM
AO-7 01 Nov 09:31:06 09:34:48 14° 329° (NNW) 09:38:30 29.400 - 29.500 MHz
Saudisat 1A 01 Nov 09:57:59 09:59:51 12° 347° (NNW) 10:01:43 436.775 MHz
Sapphire 01 Nov 10:18:29 10:23:17 30° 39° (NE) 10:28:02 437.095 MHz 1200 baud AX-25 AFSK
Oscar 11 01 Nov 10:22:34 10:25:53 21° 92° (E) 10:29:11 145.825 FM, Beacon 2401.500 USB
PCSat 01 Nov 10:39:58 10:45:08 41° 44° (NE) 10:50:14 145.825 MHz
SO-50 01 Nov 10:40:30 10:42:33 13° 109° (ESE) 10:44:39 436.795 FM
FUNcube-1 01 Nov 10:42:30 10:44:54 15° 89° (E) 10:47:16 145.950 - 145.970 MHz USB
KITSAT 1 01 Nov 10:52:42 10:59:53 37° 110° (ESE) 11:07:04 435.175 FM
HO-68 01 Nov 10:53:37 11:00:53 87° 108° (ESE) 11:08:05 435.675 MHz FM
ISS 01 Nov 11:00:09 11:03:11 33° 146° (SE) 11:06:13 145.800 FM
UKube-1 01 Nov 11:23:51 11:28:15 82° 104° (ESE) 11:32:37 145.840 MHz, 145.915 MHz
ZACube-1 01 Nov 11:34:56 11:39:03 49° 99° (E) 11:43:04 437.345 MHz
Saudisat 1A 01 Nov 11:39:31 11:41:20 12° 12° (NNE) 11:43:08 436.775 MHz
Oscar 11 01 Nov 11:58:10 12:02:18 45° 290° (WNW) 12:06:24 145.825 FM, Beacon 2401.500 USB
Oscar 19 01 Nov 11:58:58 11:59:19 10° 49° (NE) 11:59:40 437.125 CW, 437.150 USB
Sapphire 01 Nov 12:01:44 12:07:08 65° 240° (WSW) 12:12:30 437.095 MHz 1200 baud AX-25 AFSK
FUNcube-1 01 Nov 12:17:34 12:21:44 62° 288° (WNW) 12:25:50 145.950 - 145.970 MHz USB
SO-50 01 Nov 12:17:48 12:22:20 84° 128° (SE) 12:27:02 436.795 FM
PCSat 01 Nov 12:23:29 12:28:36 42° 245° (WSW) 12:33:40 145.825 MHz
ISS 01 Nov 12:36:24 12:39:43 71° 345° (NNW) 12:43:04 145.800 FM
AO-27 01 Nov 12:37:38 12:38:24 10° 48° (NE) 12:39:10 436.795 MHz FM
Oscar 16 01 Nov 12:42:01 12:45:56 23° 59° (ENE) 12:49:51 437.025 USB, Beacon 2401.1428
HO-68 01 Nov 12:42:13 12:47:48 25° 309° (NW) 12:53:23 435.675 MHz FM
KITSAT 1 01 Nov 12:46:50 12:54:52 67° 312° (NW) 13:02:57 435.175 FM
UOSAT-12 01 Nov 12:56:28 13:00:21 27° 116° (ESE) 13:04:17 437.025 FM, 437.400 FM
JAS-1B 01 Nov 12:57:15 13:02:05 30° 59° (ENE) 13:07:07 435.800 - 435.900 CW/SSB
UKube-1 01 Nov 13:01:30 13:03:51 14° 303° (WNW) 13:06:11 145.840 MHz, 145.915 MHz
AO-Echo 01 Nov 13:08:18 13:12:01 21° 58° (ENE) 13:15:48 ?
AO-7 01 Nov 13:10:40 13:12:45 11° 25° (NNE) 13:14:50 29.400 - 29.500 MHz
ZACube-1 01 Nov 13:12:04 13:15:08 20° 298° (WNW) 13:18:10 437.345 MHz
Uribyol 2 01 Nov 13:17:04 13:20:56 22° 58° (ENE) 13:24:49 436.500 FM
Saudisat 1A 01 Nov 13:18:27 13:22:19 28° 36° (NE) 13:26:10 436.775 MHz
ITAMSAT 1 01 Nov 13:25:06 13:29:09 23° 59° (ENE) 13:33:12 435.822 SSB
Oscar 19 01 Nov 13:32:36 13:37:34 53° 69° (ENE) 13:42:34 437.125 CW, 437.150 USB
Sapphire 01 Nov 13:48:16 13:49:30 11° 259° (W) 13:50:44 437.095 MHz 1200 baud AX-25 AFSK
SO-50 01 Nov 13:59:44 14:03:29 24° 330° (NNW) 14:07:19 436.795 FM
AO-27 01 Nov 14:11:44 14:16:47 53° 68° (ENE) 14:21:53 436.795 MHz FM
ISS 01 Nov 14:13:22 14:16:39 54° 5° (N) 14:19:57 145.800 FM
Oscar 16 01 Nov 14:19:47 14:24:53 63° 258° (WSW) 14:30:00 437.025 USB, Beacon 2401.1428
Gurwin Techsat 1B 01 Nov 14:33:50 14:38:52 45° 67° (ENE) 14:43:55 435.225 FM
UOSAT-12 01 Nov 14:35:38 14:40:14 54° 315° (NW) 14:44:54 437.025 FM, 437.400 FM
TMSAT-1 01 Nov 14:39:36 14:44:29 39° 65° (ENE) 14:49:24 436.925 FM
